Location: New Mesquite
(33.1168°N, 96.4336°W)
Time: 03:26:58
(UTC+00:00)

X-37B - Pass Details

Date: 06 December 2022
Orbit: 277 x 277 km, 45.0° (Epoch: 01 November)

Event Time Altitude Azimuth Distance (km) Brightness Sun altitude
Rises 00:57:57 0° 251° (WSW) 1,903 5.7 -20.4°
Reaches altitude 10° 00:59:56 10° 261° (W) 1,094 4.0 -20.8°
Enters shadow 01:01:14 24° 282° (WNW) 633 2.3 -21.0°
